| time (UTC) | temp F | wind direction | speed MPH | gust MPH | rain 1hr in | rain 24hr in | rain mn in | humidity % | barometer mb |
| 20260507130346 | 79 | 220 | 5.0 | 8.0 | 0.00 | 0.00 | 0.00 | 77 | 1015.5 |
| 20260507125829 | 79 | 224 | 4.0 | 7.0 | 0.00 | 0.00 | 0.00 | 78 | 1015.6 |
| 20260507125337 | 79 | 238 | 4.0 | 7.0 | 0.00 | 0.00 | 0.00 | 79 | 1015.4 |
| 20260507124828 | 78 | 240 | 4.0 | 7.0 | 0.00 | 0.00 | 0.00 | 79 | 1015.7 |
| 20260507124320 | 78 | 205 | 3.0 | 6.0 | 0.00 | 0.00 | 0.00 | 80 | 1015.8 |
| 20260507123836 | 78 | 205 | 3.0 | 8.0 | 0.00 | 0.00 | 0.00 | 81 | 1015.7 |
| 20260507123341 | 77 | 238 | 3.0 | 8.0 | 0.00 | 0.00 | 0.00 | 82 | 1015.7 |
| 20260507122829 | 77 | 212 | 4.0 | 7.0 | 0.00 | 0.00 | 0.00 | 81 | 1015.5 |
| 20260507122340 | 77 | 236 | 4.0 | 7.0 | 0.00 | 0.00 | 0.00 | 82 | 1015.5 |
| 20260507121830 | 77 | 240 | 4.0 | 7.0 | 0.00 | 0.00 | 0.00 | 83 | 1015.6 |
| 20260507121336 | 76 | 198 | 4.0 | 8.0 | 0.00 | 0.00 | 0.00 | 83 | 1015.6 |
| 20260507120844 | 76 | 211 | 4.0 | 8.0 | 0.00 | 0.00 | 0.00 | 84 | 1015.6 |
| 20260507120341 | 76 | 227 | 3.0 | 6.0 | 0.00 | 0.00 | 0.00 | 84 | 1015.6 |
| 20260507115835 | 76 | 245 | 3.0 | 6.0 | 0.00 | 0.00 | 0.00 | 85 | 1015.5 |
| 20260507115319 | 75 | 248 | 3.0 | 5.0 | 0.00 | 0.00 | 0.00 | 85 | 1015.6 |
| 20260507114831 | 75 | 264 | 2.0 | 5.0 | 0.00 | 0.00 | 0.00 | 85 | 1015.6 |
| 20260507114345 | 75 | 245 | 3.0 | 5.0 | 0.00 | 0.00 | 0.00 | 85 | 1015.5 |
| 20260507113834 | 75 | 249 | 2.0 | 6.0 | 0.00 | 0.00 | 0.00 | 85 | 1015.4 |
| 20260507113319 | 75 | 247 | 2.0 | 5.0 | 0.00 | 0.00 | 0.00 | 85 | 1015.4 |
| 20260507112843 | 75 | 259 | 1.0 | 4.0 | 0.00 | 0.00 | 0.00 | 85 | 1015.4 |
| 20260507112326 | 74 | 244 | 2.0 | 4.0 | 0.00 | 0.00 | 0.00 | 85 | 1015.4 |
| 20260507111905 | 74 | 259 | 3.0 | 6.0 | 0.00 | 0.00 | 0.00 | 85 | 1015.3 |
| 20260507111326 | 74 | 255 | 4.0 | 7.0 | 0.00 | 0.00 | 0.00 | 85 | 1015.3 |
| 20260507110834 | 74 | 242 | 4.0 | 7.0 | 0.00 | 0.00 | 0.00 | 85 | 1015.2 |
| 20260507110342 | 74 | 259 | 3.0 | 6.0 | 0.00 | 0.00 | 0.00 | 85 | 1015.1 |
| 20260507105846 | 74 | 258 | 3.0 | 6.0 | 0.00 | 0.00 | 0.00 | 85 | 1015.1 |
| 20260507105318 | 74 | 241 | 2.0 | 5.0 | 0.00 | 0.00 | 0.00 | 85 | 1015.1 |
| 20260507104833 | 74 | 296 | 2.0 | 5.0 | 0.00 | 0.00 | 0.00 | 85 | 1015.0 |
| 20260507104317 | 74 | 248 | 3.0 | 5.0 | 0.00 | 0.00 | 0.00 | 85 | 1014.9 |
| 20260507103837 | 74 | 238 | 1.0 | 3.0 | 0.00 | 0.00 | 0.00 | 84 | 1014.9 |
| 20260507103321 | 74 | 232 | 1.0 | 3.0 | 0.00 | 0.00 | 0.00 | 84 | 1014.8 |
| 20260507102833 | 74 | 232 | 1.0 | 2.0 | 0.00 | 0.00 | 0.00 | 84 | 1014.9 |
| 20260507102336 | 74 | 237 | 1.0 | 4.0 | 0.00 | 0.00 | 0.00 | 85 | 1014.9 |
| 20260507101843 | 74 | 246 | 1.0 | 4.0 | 0.00 | 0.00 | 0.00 | 84 | 1014.9 |
| 20260507101327 | 74 | 257 | 2.0 | 5.0 | 0.00 | 0.00 | 0.00 | 84 | 1014.5 |
| 20260507100836 | 74 | 242 | 3.0 | 5.0 | 0.00 | 0.00 | 0.00 | 85 | 1014.5 |
| 20260507100342 | 74 | 243 | 2.0 | 6.0 | 0.00 | 0.00 | 0.00 | 85 | 1014.3 |
| 20260507095830 | 74 | 250 | 4.0 | 7.0 | 0.00 | 0.00 | 0.00 | 85 | 1014.3 |
| 20260507095334 | 74 | 230 | 4.0 | 6.0 | 0.00 | 0.00 | 0.00 | 85 | 1014.3 |
| 20260507094818 | 74 | 238 | 4.0 | 6.0 | 0.00 | 0.00 | 0.00 | 85 | 1014.3 |
| 20260507094354 | 74 | 220 | 4.0 | 6.0 | 0.00 | 0.00 | 0.00 | 85 | 1014.1 |
| 20260507093823 | 74 | 220 | 4.0 | 5.0 | 0.00 | 0.00 | 0.00 | 85 | 1014.2 |
| 20260507093317 | 74 | 223 | 3.0 | 4.0 | 0.00 | 0.00 | 0.00 | 85 | 1014.2 |
| 20260507092835 | 74 | 237 | 3.0 | 4.0 | 0.00 | 0.00 | 0.00 | 85 | 1014.2 |
| 20260507092322 | 74 | 255 | 3.0 | 4.0 | 0.00 | 0.00 | 0.00 | 85 | 1014.2 |
| 20260507091837 | 74 | 259 | 1.0 | 2.0 | 0.00 | 0.00 | 0.00 | 85 | 1014.1 |
| 20260507091340 | 74 | 303 | 1.0 | 4.0 | 0.00 | 0.00 | 0.00 | 85 | 1014.3 |
| 20260507090824 | 74 | 252 | 2.0 | 4.0 | 0.00 | 0.00 | 0.00 | 85 | 1014.0 |
| 20260507090340 | 74 | 246 | 3.0 | 4.0 | 0.00 | 0.00 | 0.00 | 85 | 1014.1 |
| 20260507085843 | 74 | 255 | 1.0 | 4.0 | 0.00 | 0.00 | 0.00 | 84 | 1014.1 |
| 20260507085326 | 74 | 261 | 2.0 | 5.0 | 0.00 | 0.00 | 0.00 | 84 | 1013.9 |
| 20260507084819 | 74 | 259 | 2.0 | 5.0 | 0.00 | 0.00 | 0.00 | 84 | 1013.8 |
| 20260507084340 | 74 | 254 | 1.0 | 4.0 | 0.00 | 0.00 | 0.00 | 84 | 1013.8 |
| 20260507083820 | 74 | 253 | 2.0 | 4.0 | 0.00 | 0.00 | 0.00 | 84 | 1013.9 |
| 20260507083319 | 74 | 251 | 2.0 | 4.0 | 0.00 | 0.00 | 0.00 | 84 | 1013.7 |
| 20260507082836 | 74 | 241 | 2.0 | 5.0 | 0.00 | 0.00 | 0.00 | 84 | 1013.8 |
| 20260507082343 | 74 | 250 | 2.0 | 5.0 | 0.00 | 0.00 | 0.00 | 84 | 1013.8 |
| 20260507081830 | 74 | 248 | 2.0 | 4.0 | 0.00 | 0.00 | 0.00 | 84 | 1013.8 |
| 20260507081338 | 75 | 252 | 2.0 | 5.0 | 0.00 | 0.00 | 0.00 | 84 | 1013.8 |
| 20260507080843 | 75 | 240 | 3.0 | 5.0 | 0.00 | 0.00 | 0.00 | 84 | 1013.7 |
| 20260507080329 | 75 | 239 | 3.0 | 4.0 | 0.00 | 0.00 | 0.00 | 84 | 1013.7 |
| 20260507075818 | 75 | 253 | 3.0 | 4.0 | 0.00 | 0.00 | 0.00 | 84 | 1013.9 |
| 20260507075335 | 75 | 256 | 2.0 | 5.0 | 0.00 | 0.00 | 0.00 | 84 | 1013.8 |
| 20260507074821 | 75 | 255 | 3.0 | 6.0 | 0.00 | 0.00 | 0.00 | 84 | 1013.7 |
| 20260507074400 | 75 | 247 | 3.0 | 4.0 | 0.00 | 0.00 | 0.00 | 84 | 1013.9 |
| 20260507073831 | 75 | 267 | 2.0 | 6.0 | 0.00 | 0.00 | 0.00 | 84 | 1013.9 |
| 20260507073318 | 75 | 250 | 4.0 | 6.0 | 0.00 | 0.00 | 0.00 | 83 | 1013.9 |
| 20260507072850 | 75 | 215 | 3.0 | 5.0 | 0.00 | 0.00 | 0.00 | 83 | 1013.9 |
| 20260507072321 | 75 | 248 | 2.0 | 5.0 | 0.00 | 0.00 | 0.00 | 83 | 1013.9 |
| 20260507071834 | 75 | 221 | 3.0 | 5.0 | 0.00 | 0.00 | 0.00 | 83 | 1014.1 |
| 20260507071339 | 75 | 232 | 3.0 | 7.0 | 0.00 | 0.00 | 0.00 | 83 | 1014.2 |
| 20260507070831 | 75 | 244 | 4.0 | 7.0 | 0.00 | 0.00 | 0.00 | 83 | 1014.3 |
| 20260507070336 | 75 | 237 | 3.0 | 5.0 | 0.00 | 0.00 | 0.00 | 82 | 1014.2 |
| 20260507065845 | 75 | 250 | 3.0 | 6.0 | 0.00 | 0.00 | 0.00 | 82 | 1014.3 |
| 20260507065332 | 75 | 251 | 3.0 | 4.0 | 0.00 | 0.00 | 0.00 | 82 | 1014.4 |
| 20260507064839 | 76 | 257 | 2.0 | 3.0 | 0.00 | 0.00 | 0.00 | 81 | 1014.6 |
| 20260507064327 | 76 | 302 | 0.0 | 3.0 | 0.00 | 0.00 | 0.00 | 81 | 1014.5 |
| 20260507063859 | 76 | 82 | 0.0 | 3.0 | 0.00 | 0.00 | 0.00 | 81 | 1014.6 |
| 20260507063326 | 76 | 245 | 1.0 | 4.0 | 0.00 | 0.00 | 0.00 | 81 | 1014.7 |
| 20260507062839 | 76 | 252 | 2.0 | 4.0 | 0.00 | 0.00 | 0.00 | 81 | 1014.8 |
| 20260507062328 | 76 | 257 | 1.0 | 6.0 | 0.00 | 0.00 | 0.00 | 80 | 1014.7 |
| 20260507061846 | 76 | 260 | 2.0 | 6.0 | 0.00 | 0.00 | 0.00 | 80 | 1014.8 |
| 20260507061330 | 76 | 263 | 2.0 | 5.0 | 0.00 | 0.00 | 0.00 | 80 | 1015.0 |
| 20260507060839 | 76 | 259 | 3.0 | 5.0 | 0.00 | 0.00 | 0.00 | 80 | 1014.9 |
| 20260507060333 | 76 | 226 | 3.0 | 5.0 | 0.00 | 0.00 | 0.00 | 79 | 1014.8 |
| 20260507055859 | 77 | 244 | 3.0 | 5.0 | 0.00 | 0.00 | 0.00 | 79 | 1014.8 |
| 20260507055325 | 77 | 223 | 2.0 | 7.0 | 0.00 | 0.00 | 0.00 | 79 | 1014.9 |
| 20260507054905 | 77 | 235 | 3.0 | 7.0 | 0.00 | 0.00 | 0.00 | 78 | 1014.9 |
| 20260507054335 | 77 | 225 | 3.0 | 7.0 | 0.00 | 0.00 | 0.00 | 78 | 1014.9 |
| 20260507053842 | 78 | 246 | 3.0 | 6.0 | 0.00 | 0.00 | 0.00 | 77 | 1015.1 |
| 20260507053334 | 78 | 284 | 2.0 | 6.0 | 0.00 | 0.00 | 0.00 | 76 | 1015.1 |
| 20260507052827 | 79 | 246 | 4.0 | 13.0 | 0.00 | 0.00 | 0.00 | 76 | 1015.1 |
| 20260507052337 | 79 | 252 | 7.0 | 13.0 | 0.00 | 0.00 | 0.00 | 76 | 1015.2 |
| 20260507051842 | 79 | 217 | 6.0 | 8.0 | 0.00 | 0.00 | 0.00 | 76 | 1015.1 |
| 20260507051331 | 79 | 171 | 4.0 | 10.0 | 0.00 | 0.00 | 0.00 | 76 | 1015.3 |
| 20260507050844 | 80 | 219 | 5.0 | 12.0 | 0.00 | 0.00 | 0.00 | 76 | 1015.3 |
| 20260507050319 | 80 | 170 | 7.0 | 14.0 | 0.00 | 0.00 | 0.00 | 76 | 1015.2 |
| 20260507045835 | 80 | 173 | 8.0 | 14.0 | 0.00 | 0.00 | 0.00 | 76 | 1015.3 |
| 20260507045337 | 80 | 192 | 9.0 | 13.0 | 0.00 | 0.00 | 0.00 | 77 | 1015.3 |
| 20260507044843 | 80 | 138 | 9.0 | 15.0 | 0.00 | 0.00 | 0.00 | 76 | 1015.3 |
| 20260507044331 | 80 | 185 | 8.0 | 14.0 | 0.00 | 0.00 | 0.00 | 76 | 1015.2 |
| 20260507043837 | 80 | 194 | 10.0 | 15.0 | 0.00 | 0.00 | 0.00 | 76 | 1015.1 |
| 20260507043325 | 80 | 169 | 10.0 | 15.0 | 0.00 | 0.00 | 0.00 | 76 | 1015.1 |
| 20260507042816 | 80 | 167 | 9.0 | 16.0 | 0.00 | 0.00 | 0.00 | 76 | 1015.0 |
| 20260507042341 | 80 | 163 | 10.0 | 14.0 | 0.00 | 0.00 | 0.00 | 76 | 1014.9 |
| 20260507041857 | 80 | 184 | 10.0 | 14.0 | 0.00 | 0.00 | 0.00 | 76 | 1014.9 |
| 20260507041346 | 80 | 197 | 7.0 | 11.0 | 0.00 | 0.00 | 0.00 | 76 | 1015.1 |
| 20260507040831 | 80 | 192 | 7.0 | 11.0 | 0.00 | 0.00 | 0.00 | 76 | 1015.1 |
| 20260507040336 | 80 | 175 | 6.0 | 11.0 | 0.00 | 0.00 | 0.00 | 75 | 1015.1 |
| 20260507035838 | 80 | 151 | 5.0 | 15.0 | 0.00 | 0.00 | 0.00 | 76 | 1015.4 |
| 20260507035329 | 80 | 150 | 9.0 | 15.0 | 0.00 | 0.00 | 0.00 | 75 | 1015.4 |
| 20260507034837 | 80 | 149 | 5.0 | 10.0 | 0.00 | 0.00 | 0.00 | 75 | 1015.3 |
| 20260507034324 | 80 | 168 | 6.0 | 13.0 | 0.00 | 0.00 | 0.00 | 75 | 1015.2 |
| 20260507033842 | 80 | 190 | 9.0 | 13.0 | 0.00 | 0.00 | 0.00 | 75 | 1015.2 |
| 20260507033348 | 80 | 113 | 9.0 | 12.0 | 0.00 | 0.00 | 0.00 | 76 | 1015.2 |
| 20260507032818 | 80 | 173 | 8.0 | 12.0 | 0.00 | 0.00 | 0.00 | 76 | 1015.2 |
| 20260507032350 | 80 | 188 | 9.0 | 15.0 | 0.00 | 0.00 | 0.00 | 76 | 1015.2 |
| 20260507031845 | 80 | 197 | 8.0 | 15.0 | 0.00 | 0.00 | 0.00 | 75 | 1015.2 |
| 20260507031347 | 80 | 173 | 9.0 | 13.0 | 0.00 | 0.00 | 0.00 | 76 | 1015.2 |
| 20260507030829 | 80 | 174 | 9.0 | 15.0 | 0.00 | 0.00 | 0.00 | 76 | 1015.0 |
| 20260507030326 | 80 | 174 | 11.0 | 14.0 | 0.00 | 0.00 | 0.00 | 75 | 1015.0 |
| 20260507025817 | 80 | 182 | 9.0 | 14.0 | 0.00 | 0.00 | 0.00 | 76 | 1015.2 |
| 20260507025339 | 80 | 182 | 9.0 | 14.0 | 0.00 | 0.00 | 0.00 | 76 | 1015.2 |
| 20260507024833 | 80 | 176 | 8.0 | 13.0 | 0.00 | 0.00 | 0.00 | 76 | 1015.2 |
| 20260507024404 | 80 | 184 | 9.0 | 13.0 | 0.00 | 0.00 | 0.00 | 75 | 1015.1 |
| 20260507023845 | 80 | 184 | 9.0 | 13.0 | 0.00 | 0.00 | 0.00 | 76 | 1015.2 |
| 20260507023334 | 80 | 176 | 9.0 | 13.0 | 0.00 | 0.00 | 0.00 | 76 | 1015.3 |
| 20260507022858 | 80 | 176 | 8.0 | 13.0 | 0.00 | 0.00 | 0.00 | 76 | 1015.2 |
| 20260507022325 | 80 | 167 | 10.0 | 15.0 | 0.00 | 0.00 | 0.00 | 75 | 1015.3 |
| 20260507021843 | 80 | 180 | 10.0 | 15.0 | 0.00 | 0.00 | 0.00 | 75 | 1015.1 |
| 20260507021331 | 80 | 166 | 9.0 | 13.0 | 0.00 | 0.00 | 0.00 | 75 | 1015.2 |
| 20260507020833 | 80 | 160 | 7.0 | 11.0 | 0.00 | 0.00 | 0.00 | 75 | 1015.3 |
| 20260507020344 | 80 | 196 | 6.0 | 12.0 | 0.00 | 0.00 | 0.00 | 75 | 1015.2 |
| 20260507015841 | 80 | 163 | 7.0 | 12.0 | 0.00 | 0.00 | 0.00 | 75 | 1015.4 |
| 20260507015331 | 81 | 135 | 7.0 | 11.0 | 0.00 | 0.00 | 0.00 | 75 | 1015.4 |
| 20260507014821 | 80 | 194 | 5.0 | 9.0 | 0.00 | 0.00 | 0.00 | 75 | 1015.4 |
| 20260507014337 | 80 | 115 | 6.0 | 10.0 | 0.00 | 0.00 | 0.00 | 75 | 1015.4 |
| 20260507013823 | 80 | 196 | 7.0 | 11.0 | 0.00 | 0.00 | 0.00 | 74 | 1015.3 |
| 20260507013359 | 81 | 180 | 7.0 | 13.0 | 0.00 | 0.00 | 0.00 | 75 | 1015.5 |
| 20260507012845 | 81 | 169 | 8.0 | 14.0 | 0.00 | 0.00 | 0.00 | 74 | 1015.4 |
| 20260507012334 | 81 | 173 | 8.0 | 12.0 | 0.00 | 0.00 | 0.00 | 74 | 1015.5 |
| 20260507011839 | 81 | 190 | 6.0 | 11.0 | 0.00 | 0.00 | 0.00 | 74 | 1015.4 |
| 20260507011326 | 81 | 182 | 8.0 | 11.0 | 0.00 | 0.00 | 0.00 | 73 | 1015.3 |
| 20260507010847 | 81 | 166 | 6.0 | 13.0 | 0.00 | 0.00 | 0.00 | 72 | 1015.2 |
| 20260507010329 | 81 | 160 | 7.0 | 13.0 | 0.00 | 0.00 | 0.00 | 73 | 1015.1 |
| 20260507005821 | 81 | 170 | 7.0 | 12.0 | 0.00 | 0.00 | 0.00 | 73 | 1015.2 |
| 20260507005328 | 81 | 165 | 8.0 | 12.0 | 0.00 | 0.00 | 0.00 | 71 | 1015.1 |
| 20260507004832 | 81 | 174 | 7.0 | 12.0 | 0.00 | 0.00 | 0.00 | 72 | 1015.1 |
| 20260507004343 | 81 | 164 | 7.0 | 12.0 | 0.00 | 0.00 | 0.00 | 71 | 1015.0 |
| 20260507003850 | 81 | 182 | 8.0 | 11.0 | 0.00 | 0.00 | 0.00 | 70 | 1015.1 |
| 20260507003341 | 81 | 180 | 6.0 | 10.0 | 0.00 | 0.00 | 0.00 | 71 | 1015.0 |
| 20260507002906 | 81 | 136 | 6.0 | 10.0 | 0.00 | 0.00 | 0.00 | 70 | 1014.9 |
| 20260507002332 | 81 | 161 | 5.0 | 11.0 | 0.00 | 0.00 | 0.00 | 71 | 1014.8 |
| 20260507001838 | 81 | 144 | 5.0 | 12.0 | 0.00 | 0.00 | 0.00 | 71 | 1014.8 |
| 20260507001329 | 81 | 153 | 8.0 | 12.0 | 0.00 | 0.00 | 0.00 | 70 | 1014.8 |
| 20260507000835 | 81 | 146 | 5.0 | 11.0 | 0.00 | 0.00 | 0.00 | 71 | 1014.8 |
| 20260507000330 | 81 | 146 | 8.0 | 12.0 | 0.00 | 0.00 | 0.00 | 70 | 1014.7 |
| 20260506235818 | 81 | 117 | 7.0 | 12.0 | 0.00 | 0.00 | 0.00 | 70 | 1014.8 |
| 20260506235318 | 81 | 158 | 7.0 | 11.0 | 0.00 | 0.00 | 0.00 | 69 | 1014.7 |
| 20260506234832 | 81 | 186 | 7.0 | 11.0 | 0.00 | 0.00 | 0.00 | 68 | 1014.6 |
| 20260506234318 | 81 | 152 | 6.0 | 11.0 | 0.00 | 0.00 | 0.00 | 69 | 1014.8 |
| 20260506233833 | 81 | 163 | 6.0 | 13.0 | 0.00 | 0.00 | 0.00 | 68 | 1014.8 |
| 20260506233324 | 81 | 171 | 8.0 | 13.0 | 0.00 | 0.00 | 0.00 | 67 | 1014.9 |
| 20260506232840 | 82 | 139 | 7.0 | 11.0 | 0.00 | 0.00 | 0.00 | 67 | 1015.0 |
| 20260506232328 | 82 | 171 | 6.0 | 10.0 | 0.00 | 0.00 | 0.00 | 67 | 1014.9 |
| 20260506231819 | 82 | 188 | 7.0 | 10.0 | 0.00 | 0.00 | 0.00 | 67 | 1014.9 |
| 20260506231337 | 82 | 195 | 5.0 | 11.0 | 0.00 | 0.00 | 0.00 | 67 | 1015.0 |
| 20260506230843 | 82 | 107 | 7.0 | 11.0 | 0.00 | 0.00 | 0.00 | 66 | 1014.9 |
| 20260506230334 | 82 | 208 | 5.0 | 9.0 | 0.00 | 0.00 | 0.00 | 66 | 1014.9 |
| 20260506225826 | 82 | 186 | 4.0 | 9.0 | 0.00 | 0.00 | 0.00 | 66 | 1015.0 |
| 20260506225400 | 82 | 183 | 5.0 | 9.0 | 0.00 | 0.00 | 0.00 | 65 | 1015.0 |
| 20260506224840 | 82 | 148 | 4.0 | 9.0 | 0.00 | 0.00 | 0.00 | 65 | 1015.0 |
| 20260506224344 | 82 | 153 | 3.0 | 9.0 | 0.00 | 0.00 | 0.00 | 63 | 1015.0 |
| 20260506223829 | 82 | 152 | 3.0 | 7.0 | 0.00 | 0.00 | 0.00 | 63 | 1015.0 |
| 20260506223406 | 82 | 119 | 4.0 | 9.0 | 0.00 | 0.00 | 0.00 | 64 | 1014.9 |
| 20260506222900 | 82 | 116 | 4.0 | 9.0 | 0.00 | 0.00 | 0.00 | 63 | 1014.9 |
| 20260506222323 | 82 | 128 | 4.0 | 9.0 | 0.00 | 0.00 | 0.00 | 63 | 1015.0 |
| 20260506221831 | 82 | 182 | 5.0 | 9.0 | 0.00 | 0.00 | 0.00 | 64 | 1015.1 |
| 20260506221341 | 82 | 194 | 4.0 | 10.0 | 0.00 | 0.00 | 0.00 | 66 | 1015.2 |
| 20260506220848 | 82 | 168 | 7.0 | 10.0 | 0.00 | 0.00 | 0.00 | 66 | 1015.2 |
| 20260506220337 | 82 | 188 | 6.0 | 11.0 | 0.00 | 0.00 | 0.00 | 66 | 1015.1 |
| 20260506215830 | 82 | 145 | 8.0 | 12.0 | 0.00 | 0.00 | 0.00 | 68 | 1015.1 |
| 20260506215341 | 82 | 167 | 7.0 | 11.0 | 0.00 | 0.00 | 0.00 | 67 | 1015.0 |
| 20260506214851 | 82 | 139 | 5.0 | 12.0 | 0.00 | 0.00 | 0.00 | 70 | 1015.0 |
| 20260506214341 | 82 | 92 | 7.0 | 12.0 | 0.00 | 0.00 | 0.00 | 68 | 1015.1 |
| 20260506213829 | 82 | 116 | 7.0 | 12.0 | 0.00 | 0.00 | 0.00 | 68 | 1015.0 |
| 20260506213336 | 82 | 180 | 6.0 | 10.0 | 0.00 | 0.00 | 0.00 | 70 | 1015.0 |
| 20260506212822 | 83 | 135 | 6.0 | 10.0 | 0.00 | 0.00 | 0.00 | 69 | 1015.0 |
| 20260506212334 | 83 | 142 | 4.0 | 10.0 | 0.00 | 0.00 | 0.00 | 71 | 1015.1 |
| 20260506211842 | 83 | 138 | 3.0 | 8.0 | 0.00 | 0.00 | 0.00 | 72 | 1015.1 |
| 20260506211346 | 82 | 114 | 4.0 | 10.0 | 0.00 | 0.00 | 0.00 | 72 | 1015.1 |
| 20260506210846 | 82 | 181 | 5.0 | 10.0 | 0.00 | 0.00 | 0.00 | 72 | 1015.1 |
| 20260506210351 | 82 | 179 | 7.0 | 11.0 | 0.00 | 0.00 | 0.00 | 71 | 1015.2 |
| 20260506205841 | 83 | 126 | 4.0 | 9.0 | 0.00 | 0.00 | 0.00 | 72 | 1015.2 |
| 20260506205334 | 83 | 143 | 6.0 | 9.0 | 0.00 | 0.00 | 0.00 | 72 | 1015.3 |
| 20260506204823 | 83 | 120 | 4.0 | 9.0 | 0.00 | 0.00 | 0.00 | 73 | 1015.3 |
| 20260506204358 | 83 | 105 | 5.0 | 9.0 | 0.00 | 0.00 | 0.00 | 72 | 1015.3 |
| 20260506203908 | 83 | 123 | 4.0 | 11.0 | 0.00 | 0.00 | 0.00 | 73 | 1015.1 |
| 20260506203355 | 83 | 182 | 4.0 | 9.0 | 0.00 | 0.00 | 0.00 | 73 | 1015.1 |
| 20260506202839 | 83 | 190 | 5.0 | 9.0 | 0.00 | 0.00 | 0.00 | 73 | 1015.1 |
| 20260506202322 | 83 | 179 | 5.0 | 10.0 | 0.00 | 0.00 | 0.00 | 73 | 1015.1 |
| 20260506201833 | 82 | 114 | 7.0 | 10.0 | 0.00 | 0.00 | 0.00 | 73 | 1015.0 |
| 20260506201339 | 83 | 115 | 6.0 | 10.0 | 0.00 | 0.00 | 0.00 | 73 | 1015.1 |
| 20260506200836 | 83 | 109 | 5.0 | 10.0 | 0.00 | 0.00 | 0.00 | 73 | 1015.1 |
| 20260506200338 | 83 | 176 | 5.0 | 10.0 | 0.00 | 0.00 | 0.00 | 74 | 1015.1 |
| 20260506195846 | 83 | 149 | 6.0 | 11.0 | 0.00 | 0.00 | 0.00 | 73 | 1015.1 |
| 20260506195352 | 83 | 210 | 4.0 | 11.0 | 0.00 | 0.00 | 0.00 | 73 | 1015.1 |
| 20260506194820 | 82 | 88 | 6.0 | 11.0 | 0.00 | 0.00 | 0.00 | 73 | 1015.2 |
| 20260506194335 | 83 | 113 | 6.0 | 11.0 | 0.00 | 0.00 | 0.00 | 73 | 1015.3 |
| 20260506193851 | 83 | 116 | 5.0 | 9.0 | 0.00 | 0.00 | 0.00 | 73 | 1015.3 |
| 20260506193401 | 83 | 117 | 5.0 | 9.0 | 0.00 | 0.00 | 0.00 | 74 | 1015.3 |
| 20260506192843 | 83 | 169 | 4.0 | 9.0 | 0.00 | 0.00 | 0.00 | 74 | 1015.4 |
| 20260506192332 | 82 | 93 | 5.0 | 11.0 | 0.00 | 0.00 | 0.00 | 74 | 1015.5 |
| 20260506191844 | 82 | 115 | 7.0 | 11.0 | 0.00 | 0.00 | 0.00 | 73 | 1015.5 |
| 20260506191402 | 83 | 140 | 6.0 | 11.0 | 0.00 | 0.00 | 0.00 | 73 | 1015.5 |
| 20260506190831 | 83 | 94 | 5.0 | 10.0 | 0.00 | 0.00 | 0.00 | 73 | 1015.6 |
| 20260506190320 | 83 | 114 | 4.0 | 9.0 | 0.00 | 0.00 | 0.00 | 73 | 1015.6 |
| 20260506185834 | 83 | 173 | 5.0 | 12.0 | 0.00 | 0.00 | 0.00 | 74 | 1015.7 |
| 20260506185334 | 83 | 182 | 7.0 | 12.0 | 0.00 | 0.00 | 0.00 | 73 | 1015.6 |
| 20260506184839 | 83 | 67 | 4.0 | 9.0 | 0.00 | 0.00 | 0.00 | 74 | 1015.8 |
| 20260506184334 | 83 | 172 | 4.0 | 9.0 | 0.00 | 0.00 | 0.00 | 75 | 1015.8 |
| 20260506183832 | 83 | 128 | 5.0 | 12.0 | 0.00 | 0.00 | 0.00 | 75 | 1015.8 |
| 20260506183323 | 83 | 176 | 8.0 | 12.0 | 0.00 | 0.00 | 0.00 | 75 | 1015.9 |
| 20260506182836 | 83 | 157 | 4.0 | 10.0 | 0.00 | 0.00 | 0.00 | 75 | 1015.9 |
| 20260506182325 | 83 | 142 | 4.0 | 9.0 | 0.00 | 0.00 | 0.00 | 75 | 1015.9 |
| 20260506181847 | 83 | 192 | 5.0 | 9.0 | 0.00 | 0.00 | 0.00 | 75 | 1016.0 |
| 20260506181338 | 83 | 153 | 5.0 | 9.0 | 0.00 | 0.00 | 0.00 | 75 | 1016.0 |
| 20260506180840 | 82 | 131 | 5.0 | 9.0 | 0.00 | 0.00 | 0.00 | 76 | 1016.1 |
| 20260506180334 | 82 | 165 | 6.0 | 9.0 | 0.00 | 0.00 | 0.00 | 76 | 1016.3 |
| 20260506175844 | 83 | 131 | 5.0 | 8.0 | 0.00 | 0.00 | 0.00 | 76 | 1016.3 |
| 20260506175328 | 83 | 154 | 5.0 | 9.0 | 0.00 | 0.00 | 0.00 | 77 | 1016.3 |
| 20260506174835 | 83 | 106 | 4.0 | 10.0 | 0.00 | 0.00 | 0.00 | 77 | 1016.3 |
| 20260506174322 | 83 | 112 | 5.0 | 9.0 | 0.00 | 0.00 | 0.00 | 77 | 1016.3 |
| 20260506173841 | 82 | 137 | 5.0 | 9.0 | 0.00 | 0.00 | 0.00 | 76 | 1016.3 |
| 20260506173335 | 83 | 197 | 3.0 | 8.0 | 0.00 | 0.00 | 0.00 | 77 | 1016.2 |
| 20260506172835 | 82 | 133 | 5.0 | 9.0 | 0.00 | 0.00 | 0.00 | 78 | 1016.3 |
| 20260506172345 | 82 | 136 | 6.0 | 9.0 | 0.00 | 0.00 | 0.00 | 77 | 1016.3 |
| 20260506171853 | 82 | 113 | 5.0 | 8.0 | 0.00 | 0.00 | 0.00 | 77 | 1016.4 |
| 20260506171336 | 82 | 121 | 4.0 | 9.0 | 0.00 | 0.00 | 0.00 | 77 | 1016.4 |
| 20260506170823 | 82 | 157 | 5.0 | 10.0 | 0.00 | 0.00 | 0.00 | 77 | 1016.5 |
| 20260506170338 | 82 | 172 | 6.0 | 9.0 | 0.00 | 0.00 | 0.00 | 76 | 1016.4 |
| 20260506165827 | 82 | 111 | 4.0 | 8.0 | 0.00 | 0.00 | 0.00 | 77 | 1016.5 |
| 20260506165347 | 82 | 131 | 5.0 | 9.0 | 0.00 | 0.00 | 0.00 | 77 | 1016.5 |
| 20260506164816 | 82 | 104 | 5.0 | 9.0 | 0.00 | 0.00 | 0.00 | 77 | 1016.6 |
| 20260506164330 | 82 | 179 | 5.0 | 9.0 | 0.00 | 0.00 | 0.00 | 77 | 1016.6 |
| 20260506163837 | 82 | 148 | 6.0 | 9.0 | 0.00 | 0.00 | 0.00 | 77 | 1016.5 |
| 20260506163331 | 82 | 151 | 5.0 | 8.0 | 0.00 | 0.00 | 0.00 | 76 | 1016.6 |
| 20260506162819 | 82 | 161 | 5.0 | 9.0 | 0.00 | 0.00 | 0.00 | 77 | 1016.6 |
| 20260506162332 | 82 | 182 | 5.0 | 9.0 | 0.00 | 0.00 | 0.00 | 76 | 1016.5 |
| 20260506161841 | 82 | 142 | 4.0 | 9.0 | 0.00 | 0.00 | 0.00 | 77 | 1016.6 |
| 20260506161346 | 82 | 99 | 4.0 | 9.0 | 0.00 | 0.00 | 0.00 | 77 | 1016.6 |
| 20260506160842 | 82 | 140 | 5.0 | 9.0 | 0.00 | 0.00 | 0.00 | 77 | 1016.6 |
| 20260506160333 | 82 | 149 | 5.0 | 9.0 | 0.00 | 0.00 | 0.00 | 77 | 1016.6 |
| 20260506155827 | 82 | 119 | 6.0 | 9.0 | 0.00 | 0.00 | 0.00 | 76 | 1016.7 |
| 20260506155335 | 82 | 130 | 5.0 | 9.0 | 0.00 | 0.00 | 0.00 | 76 | 1016.8 |
| 20260506154842 | 82 | 151 | 6.0 | 8.0 | 0.00 | 0.00 | 0.00 | 76 | 1016.8 |
| 20260506154329 | 83 | 178 | 6.0 | 8.0 | 0.00 | 0.00 | 0.00 | 75 | 1016.8 |
| 20260506153845 | 83 | 55 | 4.0 | 8.0 | 0.00 | 0.00 | 0.00 | 76 | 1016.8 |
| 20260506153328 | 82 | 117 | 5.0 | 8.0 | 0.00 | 0.00 | 0.00 | 76 | 1016.9 |
| 20260506152858 | 83 | 144 | 3.0 | 8.0 | 0.00 | 0.00 | 0.00 | 76 | 1016.7 |
| 20260506152342 | 82 | 166 | 4.0 | 8.0 | 0.00 | 0.00 | 0.00 | 76 | 1016.7 |
| 20260506151853 | 82 | 206 | 4.0 | 9.0 | 0.00 | 0.00 | 0.00 | 77 | 1016.7 |
| 20260506151320 | 82 | 134 | 5.0 | 9.0 | 0.00 | 0.00 | 0.00 | 77 | 1016.8 |
| 20260506150835 | 82 | 170 | 5.0 | 7.0 | 0.00 | 0.00 | 0.00 | 77 | 1016.7 |
| 20260506150344 | 82 | 149 | 4.0 | 9.0 | 0.00 | 0.00 | 0.00 | 78 | 1016.7 |
| 20260506145857 | 81 | 188 | 5.0 | 9.0 | 0.00 | 0.00 | 0.00 | 79 | 1016.6 |
| 20260506145345 | 80 | 157 | 6.0 | 10.0 | 0.00 | 0.00 | 0.00 | 78 | 1016.6 |
| 20260506144828 | 81 | 177 | 7.0 | 10.0 | 0.00 | 0.00 | 0.00 | 78 | 1016.6 |
| 20260506144322 | 81 | 188 | 7.0 | 10.0 | 0.00 | 0.00 | 0.00 | 78 | 1016.7 |
| 20260506143901 | 80 | 182 | 6.0 | 11.0 | 0.00 | 0.00 | 0.00 | 78 | 1016.6 |
| 20260506143329 | 81 | 190 | 7.0 | 11.0 | 0.00 | 0.00 | 0.00 | 78 | 1016.6 |
| 20260506142846 | 81 | 134 | 6.0 | 10.0 | 0.00 | 0.00 | 0.00 | 78 | 1016.6 |
| 20260506142342 | 81 | 125 | 5.0 | 10.0 | 0.00 | 0.00 | 0.00 | 78 | 1016.6 |
| 20260506141840 | 81 | 167 | 5.0 | 10.0 | 0.00 | 0.00 | 0.00 | 78 | 1016.4 |
| 20260506141329 | 81 | 171 | 5.0 | 9.0 | 0.00 | 0.00 | 0.00 | 78 | 1016.4 |
| 20260506140826 | 81 | 136 | 5.0 | 10.0 | 0.00 | 0.00 | 0.00 | 78 | 1016.5 |
| 20260506140337 | 81 | 147 | 6.0 | 10.0 | 0.00 | 0.00 | 0.00 | 78 | 1016.4 |
| 20260506135846 | 81 | 137 | 5.0 | 12.0 | 0.00 | 0.00 | 0.00 | 79 | 1016.4 |
| 20260506135330 | 80 | 197 | 5.0 | 10.0 | 0.00 | 0.00 | 0.00 | 78 | 1016.4 |
| 20260506134820 | 80 | 175 | 7.0 | 9.0 | 0.00 | 0.00 | 0.00 | 79 | 1016.3 |
| 20260506134316 | 80 | 160 | 5.0 | 9.0 | 0.00 | 0.00 | 0.00 | 80 | 1016.3 |
| 20260506133818 | 80 | 174 | 6.0 | 9.0 | 0.00 | 0.00 | 0.00 | 79 | 1016.3 |
| 20260506133334 | 80 | 194 | 5.0 | 9.0 | 0.00 | 0.00 | 0.00 | 80 | 1016.3 |
| 20260506132840 | 80 | 209 | 6.0 | 10.0 | 0.00 | 0.00 | 0.00 | 80 | 1016.3 |
| 20260506132346 | 80 | 156 | 6.0 | 10.0 | 0.00 | 0.00 | 0.00 | 80 | 1016.2 |
| 20260506131833 | 80 | 192 | 7.0 | 10.0 | 0.00 | 0.00 | 0.00 | 80 | 1016.1 |
| 20260506131319 | 80 | 173 | 7.0 | 10.0 | 0.00 | 0.00 | 0.00 | 80 | 1016.1 |
| 20260506130841 | 79 | 183 | 6.0 | 10.0 | 0.00 | 0.00 | 0.00 | 80 | 1016.0 |